Location: Bush Observatory
(40.2653°N, 94.3194°W)
Time: 06:17:10
(UTC-06:00)

JAS-2 - Visible Passes

Search period start: 29 January 2015 00:00
Search period end: 08 February 2015 00:00
Orbit: 799 x 1322 km, 98.5° (Epoch: 27 January)

Date Brightness Start Highest point End Pass type
(mag) Time Alt. Az. Time Alt. Az. Time Alt. Az.
29 Jan 10.6 04:33:07 10° NNE 04:38:28 41° E 04:44:30 10° SSE visible
29 Jan 10.2 06:18:40 10° N 06:23:31 29° WNW 06:28:42 10° SW visible
30 Jan 12.1 03:40:04 10° ENE 03:42:58 14° E 03:46:23 10° ESE visible
30 Jan 9.3 05:22:54 10° N 05:28:38 79° WNW 05:35:06 10° SSW visible
31 Jan 10.7 04:28:09 10° NNE 04:33:32 38° E 04:39:35 10° SSE visible
31 Jan 10.1 06:13:33 10° N 06:18:36 32° WNW 06:24:04 10° SW visible
01 Feb 12.2 03:35:20 10° ENE 03:37:59 13° E 03:41:11 10° ESE visible
01 Feb 9.4 05:17:52 10° NNE 05:23:43 85° WNW 05:30:20 10° SSW visible
02 Feb 10.9 04:23:11 10° NNE 04:28:36 36° E 04:34:41 10° SSE visible
02 Feb 10.1 06:08:26 10° N 06:13:42 35° WNW 06:19:26 10° SW visible
03 Feb 12.3 03:30:38 10° ENE 03:33:01 13° E 03:35:58 10° ESE visible
03 Feb 9.5 05:12:51 10° NNE 05:18:48 90° E 05:25:33 10° SSW visible
04 Feb 11.0 04:18:14 10° NNE 04:23:40 34° E 04:29:47 10° SSE visible
04 Feb 10.0 06:03:20 10° N 06:08:48 38° WNW 06:14:47 10° SW visible
05 Feb 12.3 03:25:59 10° ENE 03:28:03 12° E 03:30:42 10° ESE visible
05 Feb 9.6 05:07:50 10° NNE 05:13:54 85° ESE 05:20:47 10° SSW visible
06 Feb 11.1 04:13:18 10° NE 04:18:44 33° E 04:24:53 10° SSE visible
06 Feb 10.0 05:58:15 10° N 06:03:54 41° WNW 06:10:09 10° SW visible
07 Feb 12.4 03:21:26 10° ENE 03:23:05 11° E 03:25:20 10° ESE visible
07 Feb 9.7 05:02:49 10° NNE 05:09:00 80° ESE 05:16:00 10° S visible
07 Feb 10.9 06:49:40 10° NNW 06:53:41 18° WNW 06:57:39 10° W visible
